Tracking 20628 objects as of 7-Apr-2020
HD Live streaming from Space Station
objects crossing your sky now

USA 24

Track USA 24 now!
10-day predictions
USA 24 is classified as:


NORAD ID: 18010
Int'l Code: 1987-043F
Perigee: 398.7 km
Apogee: 1,790.3 km
Inclination: 63.3 °
Period: 107.0 minutes
Semi major axis: 7465 km
RCS: Unknown
Launch date: May 15, 1987
Source: United States (US)
Launch site: AIR FORCE WESTERN TEST RANGE (AFWTR)
aabbcc
Your satellite tracking list
Your tracking list is empty




NASA's NSSDC Master Catalog

Two Line Element Set (TLE):
1 18010U 87043F   20098.33844854 +.00000883 +00000-0 +94434-4 0  9997
2 18010 063.3060 317.9149 0932065 062.3120 306.9326 13.45906883037818
Source of the keplerian elements: McCants